SXM-7

Last updated on Wed Sep 09 2026 00:03:03 GMT+0000 (Coordinated Universal Time)

1 47240U 20096A 26251.07179304 -.00000226 00000+0 00000+0 0 9990 2 47240 0.0177 122.6257 0004244 3.3133 161.8804 1.00271661 8275
UTC large
Height (km)
Speed (km/s)
/
Latitude / Longitude
Inclination (degrees)
Orbital Period (minutes)
Azimuth
Elevation
Range (km)
Doppler Factor

Next 0 passes for location: London (51.5072 / 0.1276)

No passes found over London.
SXM-7